This demonstration page uses our WeatherBlox Daily Observations layout. Learn more.

Left ArrowRight Arrow

41.86663, -103.66717

Hourly Observations for September 16, 2021

Temp ( °F °C ) Dew Point ( °F °C ) Humidity (%) Winds ( mph kmh ) Pressure ( in mb ) Visibility ( mi km ) Precip ( " mm )
12:53 am 00:53 Clear 58 14.4 35 1.7 42 42 SE 5 7 29.68 1005 10 16 N/A
1:53 am 01:53 Clear 55 12.8 35 1.7 47 47 NNE 6 9 29.67 1005 10 16 N/A
2:53 am 02:53 Clear 53 11.7 35 1.7 51 51 NNE 7 11 29.67 1005 10 16 N/A
3:53 am 03:53 Clear 52 11.1 34 1.1 50 50 NE 3 6 29.67 1005 10 16 N/A
4:53 am 04:53 Clear 49 9.4 36 2.2 61 61 N 3 6 29.68 1005 10 16 N/A
5:53 am 05:53 Clear 51 10.6 34 1.1 52 52 N N/A 29.69 1005 10 16 N/A
6:53 am 06:53 Sunny 49 9.4 35 1.7 59 59 N 7 11 29.71 1006 10 16 N/A
7:53 am 07:53 Sunny 58 14.4 37 2.8 46 46 N N/A 29.74 1007 10 16 N/A
8:53 am 08:53 Sunny 68 20 31 -0.6 25 25 NNW 6 9 29.72 1006 10 16 N/A
9:53 am 09:53 Sunny 77 25 35 1.7 22 22 WNW 8 13 29.71 1006 10 16 N/A
10:53 am 10:53 Sunny 83 28.3 34 1.1 17 17 VRB 3 6 29.68 1005 10 16 N/A
11:53 am 11:53 Sunny 87 30.6 37 2.8 17 17 SE 5 7 29.65 1004 10 16 N/A
12:53 pm 12:53 Sunny 92 33.3 34 1.1 13 13 E 9 15 29.63 1003 10 16 N/A
1:53 pm 13:53 Sunny 94 34.4 31 -0.6 11 11 E 8 13 29.61 1003 10 16 N/A
2:53 pm 14:53 Sunny 93 33.9 32 undefined 11 11 ESE 9 15 29.60 1003 10 16 N/A
3:53 pm 15:53 Sunny 92 33.3 34 1.1 13 13 SE 10 17 29.60 1002 10 16 N/A
4:53 pm 16:53 Sunny 89 31.7 32 undefined 13 13 WNW 13 20 29.65 1004 10 16 N/A
5:53 pm 17:53 Mostly Sunny 88 31.1 32 undefined 13 13 W 29 46 29.67 1005 8 13 N/A
6:53 pm 18:53 Sunny 86 30 30 -1.1 13 13 W 5 7 29.67 1005 10 16 N/A
7:53 pm 19:53 Mostly Clear 87 30.6 29 -1.7 12 12 W 13 20 29.65 1004 10 16 N/A
8:53 pm 20:53 Clear 84 28.9 31 -0.6 15 15 NW 12 19 29.68 1005 10 16 N/A
9:13 pm 21:13 Mostly Clear 70 21.1 46 7.8 42 42 NNE 25 41 29.68 1005 10 16 N/A
9:53 pm 21:53 Clear 69 20.6 48 8.9 47 47 NE 26 43 29.77 1008 10 16 N/A
10:53 pm 22:53 Clear 65 18.3 46 7.8 51 51 NE 25 41 29.83 1010 10 16 N/A
11:39 pm 23:39 Clear 57 13.9 36 2.2 45 45 NNW 18 30 30.00 1016 10 16 N/A
11:53 pm 23:53 Clear 56 13.3 36 2.2 47 47 NNW 15 24 29.98 1015 10 16 N/A

Powered by AerisWeather